Andrews AFB, MD

9:22 PM EST on December 17, 2017 (GMT -0500)
Andrews Air Force Base-Naf

Weather History for KADW - December, 2012

Change the Weather History Date:

Monday, December 3, 2012

  Actual Average Record
Temperature  
Mean Temperature 55 °F -  
Max Temperature 69 °F 50 °F 69 °F (2012)
Min Temperature 41 °F 31 °F 15 °F (2002)
Degree Days  
Heating Degree Days 10    
Growing Degree Days 5 (Base 50)    
Moisture  
Dew Point 48 °F    
Average Humidity 83    
Maximum Humidity 100    
Minimum Humidity 55    
Precipitation  
Precipitation 0.00 in - - ()
Sea Level Pressure  
Sea Level Pressure 30.22 in    
Wind  
Wind Speed 3 mph (SSW)    
Max Wind Speed 8 mph    
Max Gust Speed -    
Visibility 8 miles    
Events      
Averages and records for this station are not official NWS values.
T = Trace of Precipitation, MM = Missing Value Source: NWS Daily Summary

Daily Weather History Graph

Daily Weather History Graph

Search for Another Location

Airport or City:

Trip Planner

Search our weather history database for the weather conditions in past years. The results will help you decide how hot, cold, wet, or windy it might be!

Date:

Astronomy

Dec. 03, 2012 Rise Set
Actual Time 7:09 AM EST 4:45 PM EST
Civil Twilight 6:39 AM EST 5:15 PM EST
Nautical Twilight 6:06 AM EST 5:48 PM EST
Astronomical Twilight 5:34 AM EST 6:20 PM EST
Moon 9:28 PM EST (12/3) 10:32 AM EST (12/3)
Length of Visible Light 10h 35m
Length of Day
9h 36m
Waning Gibbous, 78% of the Moon is Illuminated
Dec 3
Waning Gibbous
Dec 6
Last Quarter
Dec 13
New
Dec 20
First Quarter
Dec 28
Full

Hourly Weather History & Observations

Time (EST) Temp. Windchill Dew Point Humidity Pressure Visibility Wind Dir Wind Speed Gust Speed Precip Events Conditions
12:55 AM 56.3 °F - 48.7 °F 76% 30.15 in 10.0 mi SW 8.1 mph - N/A   Scattered Clouds
1:55 AM 54.5 °F - 48.2 °F 79% 30.17 in 10.0 mi SW 3.5 mph - N/A   Clear
2:55 AM 50.7 °F - 45.5 °F 82% 30.18 in 10.0 mi WSW 3.5 mph - N/A   Clear
3:55 AM 48.2 °F - 46.2 °F 93% 30.18 in 10.0 mi Calm Calm - N/A   Clear
4:55 AM 47.3 °F - 46.8 °F 98% 30.19 in 10.0 mi Calm Calm - N/A   Clear
5:24 AM 46.4 °F - 46.4 °F 100% 30.19 in 7.0 mi Calm Calm - N/A   Clear
5:32 AM 46.4 °F - 44.6 °F 93% 30.19 in 8.0 mi Calm Calm - N/A   Clear
5:55 AM 44.8 °F - 44.2 °F 98% 30.20 in 10.0 mi Calm Calm - N/A   Clear
6:03 AM 44.6 °F - 44.6 °F 100% 30.20 in 3.0 mi Calm Calm - N/A   Clear
6:11 AM 46.4 °F - 44.6 °F 93% 30.20 in 4.0 mi Calm Calm - N/A   Clear
6:33 AM 44.6 °F - 42.8 °F 93% 30.22 in 4.0 mi Calm Calm - N/A   Clear
6:37 AM 42.8 °F - 42.8 °F 100% 30.22 in 2.5 mi Calm Calm - N/A   Clear
6:38 AM 42.8 °F - 42.8 °F 100% 30.22 in 2.0 mi Calm Calm - N/A   Clear
6:40 AM 42.8 °F - 41.0 °F 93% 30.22 in 1.8 mi Calm Calm - N/A   Clear
6:43 AM 41.0 °F - 41.0 °F 100% 30.22 in 1.2 mi Calm Calm - N/A   Clear
6:52 AM 42.8 °F - 42.8 °F 100% 30.22 in 1.5 mi Calm Calm - N/A   Clear
6:54 AM 42.8 °F - 42.8 °F 100% 30.22 in 2.0 mi Calm Calm - N/A   Clear
6:57 AM 42.8 °F 41.1 °F 42.8 °F 100% 30.22 in 3.0 mi South 3.5 mph - N/A   Clear
7:55 AM 43.9 °F - 43.5 °F 99% 30.24 in 8.0 mi Calm Calm - N/A   Partly Cloudy
8:55 AM 54.1 °F - 52.3 °F 94% 30.26 in 10.0 mi Calm Calm - N/A   Clear
9:55 AM 63.9 °F - 50.9 °F 63% 30.27 in 10.0 mi SW 3.5 mph - N/A   Clear
10:55 AM 65.8 °F - 51.8 °F 60% 30.26 in 10.0 mi WSW 3.5 mph - N/A   Mostly Cloudy
11:55 AM 67.6 °F - 53.1 °F 59% 30.24 in 10.0 mi NW 5.8 mph - N/A   Clear
12:55 PM 68.5 °F - 53.1 °F 58% 30.21 in 10.0 mi Variable 4.6 mph - N/A   Clear
1:55 PM 69.6 °F - 52.7 °F 55% 30.20 in 10.0 mi West 5.8 mph - N/A   Clear
2:55 PM 68.5 °F - 52.2 °F 56% 30.20 in 10.0 mi WSW 4.6 mph - N/A   Mostly Cloudy
3:55 PM 66.9 °F - 52.0 °F 59% 30.22 in 10.0 mi West 5.8 mph - N/A   Mostly Cloudy
4:55 PM 63.3 °F - 52.7 °F 68% 30.22 in 10.0 mi SSE 3.5 mph - N/A   Overcast
5:55 PM 57.0 °F - 50.7 °F 79% 30.23 in 10.0 mi SE 5.8 mph - N/A   Mostly Cloudy
6:55 PM 59.5 °F - 51.3 °F 74% 30.25 in 10.0 mi SSE 3.5 mph - N/A   Overcast
7:55 PM 60.3 °F - 51.4 °F 73% 30.25 in 10.0 mi Calm Calm - N/A   Overcast
8:55 PM 59.5 °F - 51.1 °F 74% 30.25 in 10.0 mi South 8.1 mph - N/A   Overcast
9:55 PM 57.7 °F - 50.7 °F 77% 30.25 in 10.0 mi South 8.1 mph - N/A   Mostly Cloudy
10:55 PM 56.3 °F - 50.5 °F 81% 30.24 in 10.0 mi South 6.9 mph - N/A   Partly Cloudy
11:55 PM 55.4 °F - 50.5 °F 84% 30.24 in 10.0 mi South 5.8 mph - N/A   Partly Cloudy